Regional Weather Roundup
Issued by NWS

Home | Current Version | Previous Version | Text Only | Print | Product List | Glossary Off
Versions: 1 2 3 4 5 6 7 8 9 10 11 12 13 14 15 16 17 18 19 20 21 22 23 24 25 26 27 28 29 30 31 32 33 34 35 36 37 38 39 40 41 42 43 44 45 46 47 48 49 50

000
ASUS43 KLMK 290302
RWRKY
KENTUCKY REGIONAL WEATHER ROUNDUP
NATIONAL WEATHER SERVICE LOUISVILLE KY
1100 PM EDT THU MAY 28 2015

NOTE "FAIR" INDICATES FEW OR NO CLOUDS BELOW 12,000 FEET
WITH NO SIGNIFICANT WEATHER AND/OR OBSTRUCTIONS TO VISIBILITY.

KYZ001>023-026-027-061>063-070>075-290400-
WESTERN AND SOUTH CENTRAL KENTUCKY

CITY           SKY/WX    TMP DP  RH WIND       PRES   REMARKS
PADUCAH        PTCLDY    71  67  87 E3        30.09R
HENDERSON      PTCLDY    73  64  73 SE5       30.11R
OWENSBORO      CLEAR     75  67  76 SE7       30.13R
HOPKINSVILLE   MOCLDY    74  66  78 E2        30.13R
BOWLING GREEN  CLEAR     72  65  78 E6        30.15R
GLASGOW        NOT AVBL
$$

KYZ024-025-028>034-038-045-046-053-290400-
NORTH CENTRAL KENTUCKY

CITY           SKY/WX    TMP DP  RH WIND       PRES   REMARKS
LOUISVILLE/SDF PTCLDY    73  66  78 SE8       30.15S
LOUISVILLE/LOU PTCLDY    72  67  84 SE5       30.16S
FORT KNOX      CLEAR     69  64  83 E3        30.15R
$$

KYZ035>037-039>044-047>052-055>060-089>105-290400-
NORTHEAST KENTUCKY

CITY           SKY/WX    TMP DP  RH WIND       PRES   REMARKS
LEXINGTON      LGT RAIN  71  65  81 SE9       30.21R
COVINGTON      MOCLDY    70  65  84 S5        30.18R
FRANKFORT      LGT RAIN  72  63  73 SE7       30.18R
$$

KYZ054-064>069-076>088-106>120-290400-
SOUTHEAST KENTUCKY

CITY           SKY/WX    TMP DP  RH WIND       PRES   REMARKS
JACKSON        MOCLDY    72  66  81 CALM      30.22S
LONDON         MOCLDY    71  65  81 CALM      30.21R
SOMERSET       NOT AVBL
MIDDLESBORO    CLOUDY    70  67  89 CALM      30.23S
MONTICELLO     MOCLDY    68  68 100 CALM      30.23R
$$




USA.gov is the U.S. government's official web portal to all federal, state and local government web resources and services.